Regional Weather Roundup
Issued by NWS

Home | Current Version | Previous Version | Graphics & Text | Print | Product List | Glossary On
Versions: 1 2 3 4 5 6 7 8 9 10 11 12 13 14 15 16 17 18 19 20 21 22 23 24 25 26 27 28 29 30 31 32 33 34 35 36 37 38 39 40 41 42 43 44 45 46 47 48 49 50
000
ASUS43 KDMX 311903
RWRIA

WEATHER ROUNDUP FOR IOWA
NATIONAL WEATHER SERVICE DES MOINES IA
200 PM CDT TUE MAY 31 2016

NOTE: "FAIR" INDICATES FEW OR NO CLOUDS BELOW 12,000 FEET WITH NO
SIGNIFICANT WEATHER AND/OR OBSTRUCTIONS TO VISIBILITY.

* - THESE STATIONS ARE NOT NWS STATIONS...THUS NOT UNDER NWS
QUALITY CONTROL.  THEY ALSO DO NOT REPORT WEATHER SUCH
AS PRECIPITATION OR FOG.

IAZ001>003-012>014-020>022-031>034-043>046-312000-
   NORTHWEST IOWA

CITY           SKY/WX    TMP DP  RH WIND       PRES   REMARKS
CARROLL *      CLOUDY    73  61  64 NW15G21   29.91S
CHEROKEE *     MOSUNNY   70  58  67 NW10      29.93F
DENISON *      CLOUDY    68  61  77 NW10      29.92S
LE MARS *      MOSUNNY   70  54  56 NW10G17   29.94S
ORANGE CITY *  MOSUNNY   70  55  60 W14       29.93S
SHELDON *      MOSUNNY   68  54  60 W14       29.91S
SIOUX CITY     SUNNY     74  52  46 NW14G20   29.93F
SPENCER        CLOUDY    70  56  61 W16       29.92F
STORM LAKE *   PTSUNNY   68  59  73 NW12      29.94S
$$

IAZ055>058-069>071-079>083-090>094-312000-
   SOUTHWEST IOWA

CITY           SKY/WX    TMP DP  RH WIND       PRES   REMARKS
ATLANTIC *     CLOUDY    70  61  73 NW9       29.93R
AUDUBON *      CLOUDY    72  63  73 NW6       29.93S
CLARINDA *       N/A     75  64  69 MISG      29.92S
COUNCIL BLFS * SUNNY     72  61  68 NW10      29.93F
CRESTON *      CLOUDY    73  63  68 S18       29.92S
HARLAN  *      PTSUNNY   72  61  68 NW14G21   29.96S
LAMONI         CLOUDY    73  63  70 S13       29.91F
RED OAK *      CLOUDY    72  63  73 NW9       29.93S
SHENANDOAH *   CLOUDY    75  64  69 NW10      29.92F
$$

IAZ047>049-059>061-072>074-084-312000-
   CENTRAL IOWA

CITY           SKY/WX    TMP DP  RH WIND       PRES   REMARKS
AMES           PTSUNNY   76  62  62 S13       29.88F
ANKENY *       MOSUNNY   79  63  57 SW12G20   29.89S HX  80
BOONE *        PTSUNNY   75  63  64 SW10G16   29.88F
CHARITON *     CLOUDY    77  61  57 S14G22    29.91S
DES MOINES     CLOUDY    80  60  50 SW16      29.89F HX  81
GRINNELL*      CLOUDY    79  59  50 S14G20    29.91F HX  80
KNOXVILLE *    CLOUDY    77  59  53 S12       29.89S
MARSHALLTOWN   PTSUNNY   79  61  53 SW17      29.88F HX  80
NEWTON *       PTSUNNY   81  59  47 SW17      29.89F HX  81
PERRY *        LGT RAIN  70  64  83 W8        29.90R
$$

IAZ004>006-015-016-023>025-035-036-312000-
   NORTH CENTRAL IOWA

CITY           SKY/WX    TMP DP  RH WIND       PRES   REMARKS
ALGONA *       CLOUDY    66  61  82 W13G18    29.92S
CLARION *      RAIN      66  66 100 NW9       29.91S
ESTHERVILLE    CLOUDY    64  58  80 W7        29.91F
FORT DODGE *   CLOUDY    68  57  68 W7        29.93R
MASON CITY     LGT RAIN  65  63  93 W9        29.92R FOG
FOREST CITY *  PTSUNNY   66  61  82 W12G17    29.91R
WEBSTER CITY * LGT RAIN  66  64  94 NW14      29.89S
IOWA FALLS *     N/A     77  63  61 SW15G21   29.90S
$$

IAZ007>011-017>019-026>030-037>042-050>054-066-312000-
   NORTHEAST IOWA

CITY           SKY/WX    TMP DP  RH WIND       PRES   REMARKS
CEDAR RAPIDS   CLOUDY    78  61  55 S12       29.91F HX  80
CHARLES CITY * PTSUNNY   77  61  57 S15       29.87F
DECORAH *      MOSUNNY   79  61  53 S13G21    29.89F HX  80
DUBUQUE        CLOUDY    69  63  81 SE15G23   29.96F
MONTICELLO *   CLOUDY    77  59  53 S8        29.92F
OELWEIN *      PTSUNNY   77  61  57 S15G22    29.91S
WATERLOO       PTSUNNY   80  60  50 S17G25    29.88F HX  81
$$

IAZ064-065-067-068-078-312000-
   EAST CENTRAL IOWA

CITY           SKY/WX    TMP DP  RH WIND       PRES   REMARKS
DAVENPORT      MOSUNNY   78  63  59 E9        29.95F HX  80
IOWA CITY      CLOUDY    79  61  53 SE12      29.93F HX  80
MT. PLEASANT * CLOUDY    81  63  54 S7        29.94F HX  82
MUSCATINE *    CLOUDY    79  63  57 VRB7      29.94S HX  80
QUAD CITIES    CLOUDY    80  59  48 S7        29.93F HX  81
$$

IAZ062-063-075>077-085>089-095>099-312000-
   SOUTHEAST IOWA

CITY           SKY/WX    TMP DP  RH WIND       PRES   REMARKS
BURLINGTON     CLOUDY    80  60  50 S10       29.93F HX  81
FAIRFIELD *      N/A    N/A N/A N/A MISG        N/A
FORT MADISON * MOSUNNY   79  61  53 SW3       29.95F HX  80
KEOKUK *       CLOUDY    79  61  53 S5        29.93F HX  80
OSKALOOSA *      N/A     79  59  50 S17       29.92S HX  80
WASHINGTON *   CLOUDY    79 -33   1 S9        29.95S
$$

ABBREVIATIONS USED IN REMARKS
   TC - TEMPERATURES IN CELSIUS
  WCI - WIND CHILL INDEX
   HX - HEAT INDEX
  VSB - VISIBILITY
$$





USA.gov is the U.S. government's official web portal to all federal, state and local government web resources and services.